Home > Weather > Astana > Past weeks

Flag for Kazakhstan Weather for the Past 2 Weeks in Astana, Kazakhstan

Now
10 °F

Light snow. Overcast.


Feels Like: -7 °F
Forecast: 10 / 16 °F
Wind: 17 mph from Southwest

Location: Astana

Current Time: Feb 12, 2016 at 1:12:24 AM

Latest Report: Feb 12, 2016 at 12:30 AM


Visibility: N/A

Pressure: 30.57 "Hg

Humidity: 79%

Dew point: 5 °F

Location of AstanaLocation

Historic Weather in Astana — Graph

°F

Astana Temperature Yesterday

Maximum temperature yesterday: 12 °F (at 1:30 PM)
Minimum temperature yesterday: -13 °F (at 12:30 AM)
Average temperature yesterday: 4 °F

High & Low Weather Summary for the Past Weeks

 TemperatureHumidityPressure
High34 °F (Feb 5, 11:30 PM)100% (Feb 1, 2:00 AM)30.74 "Hg (Feb 1, 2:00 AM)
Low-15 °F (Feb 10, 9:00 AM)60% (Feb 6, 3:00 PM)29.62 "Hg (Feb 7, 8:00 PM)
Average13 °F84%30.24 "Hg
* Reported Midnight between Jan 27 and Jan 28 — Midnight between Feb 11 and Feb 12, Astana, Weather by CustomWeather, © 2016

Note: Actual official high and low records may vary slightly from our data, if they occured in-between our weather recording intervals... More about our weather records

Advertising

Astana Weather History for the Previous 24 Hours

 ConditionsComfort  
Time TempWeatherWind HumidityBarometerVisibility
12:00 AM
Fri, Feb 12
10 °FPassing clouds.17 mph79%30.57 "HgN/A
11:30 PM
Thu, Feb 11
10 °FPassing clouds.17 mph79%30.57 "HgN/A
11:00 PM10 °FPassing clouds.17 mph79%30.57 "HgN/A
10:30 PM10 °FPartly cloudy.17 mph79%30.57 "HgN/A
10:00 PM9 °FPassing clouds.15 mph78%30.57 "HgN/A
9:30 PM10 °FPassing clouds.17 mph79%30.57 "HgN/A
9:00 PM12 °FPassing clouds.20 mph73%30.60 "HgN/A
8:30 PM10 °FPassing clouds.15 mph79%30.60 "HgN/A
8:00 PM10 °FOvercast.17 mph79%30.60 "HgN/A
7:30 PM10 °FMostly cloudy.17 mph79%30.63 "HgN/A
7:00 PM10 °FPartly sunny.17 mph79%30.63 "HgN/A
6:30 PM10 °FPartly sunny.20 mph79%30.63 "HgN/A
6:00 PM10 °FPartly sunny.17 mph79%30.60 "HgN/A
5:30 PM10 °FPartly sunny.20 mph79%30.63 "HgN/A
5:00 PM10 °FPartly sunny.22 mph79%30.63 "HgN/A
4:30 PM10 °FPartly sunny.20 mph79%30.63 "HgN/A
4:00 PM12 °FPartly sunny.20 mph73%30.63 "HgN/A
3:30 PM12 °FPartly sunny.22 mph73%30.63 "HgN/A
3:00 PM10 °FPartly sunny.20 mph79%30.63 "HgN/A
2:30 PM12 °FPartly sunny.20 mph73%30.63 "HgN/A
2:00 PM12 °FPartly sunny.20 mph73%30.66 "HgN/A
1:30 PM12 °FPartly sunny.20 mph73%30.66 "HgN/A
1:00 PM10 °FPartly sunny.20 mph79%30.66 "HgN/A
12:30 PM10 °FPartly sunny.17 mph79%30.66 "HgN/A
12:00 PM9 °FPartly sunny.17 mph78%30.66 "HgN/A
11:30 AM7 °FPartly sunny.15 mph85%30.66 "HgN/A
11:00 AM7 °FOvercast.15 mph85%30.66 "HgN/A
10:30 AM5 °FOvercast.15 mph85%30.66 "HgN/A
10:00 AM5 °FLight snow. Overcast.15 mph78%30.66 "HgN/A
9:30 AM3 °FLight snow. Overcast.13 mph85%30.69 "HgN/A
8:30 AM1 °FMostly cloudy.10 mph85%30.69 "HgN/A
8:00 AM1 °FPartly cloudy.10 mph78%30.69 "Hg6 mi
7:30 AM0 °FPartly cloudy.10 mph84%30.69 "Hg5 mi
7:00 AM-2 °FPartly cloudy.8 mph84%30.69 "HgN/A
6:00 AM-4 °FPartly cloudy.8 mph77%30.72 "Hg4 mi
5:30 AM-4 °FPassing clouds.10 mph84%30.69 "HgN/A
5:00 AM-4 °FPassing clouds.10 mph77%30.72 "HgN/A
4:30 AM-4 °FClear.10 mph84%30.72 "Hg10 mi
4:00 AM-6 °FClear.10 mph84%30.72 "Hg10 mi
3:30 AM-8 °FClear.10 mph84%30.72 "Hg10 mi
3:00 AM-8 °FPartly cloudy.8 mph77%30.72 "HgN/A
2:30 AM-8 °FPartly cloudy.8 mph77%30.72 "HgN/A
2:00 AM-8 °FPartly cloudy.10 mph77%30.72 "Hg6 mi
1:30 AM-8 °FPartly cloudy.8 mph77%30.74 "HgN/A
1:00 AM-11 °FPassing clouds.6 mph76%30.74 "HgN/A
Weather by CustomWeather, © 2016

See weather overviewHow to use our weather pages